Home > Weather > Turku > Past weeks

Flag for Finland Past Weather in Turku, Finland — Yesterday and Last 2 Weeks

Now
48 °F

Overcast.


Feels Like: 47 °F
Forecast: 47 / 67 °F
Wind: 3 mph from East

Location: Turku Airport

Current Time: May 27, 2016 at 5:29:10 AM

Latest Report: May 27, 2016 at 4:50 AM


Visibility: N/A

Pressure: 30.01 "Hg

Humidity: 94%

Dew Point: 46 °F

Location of TurkuLocation

Past Weather in Turku — Graph

°F

Turku Temperature Yesterday

Maximum temperature yesterday: 59 °F (at 12:20 AM)
Minimum temperature yesterday: 48 °F (at 11:50 PM)
Average temperature yesterday: 54 °F

High & Low Weather Summary for the Past Weeks

 TemperatureHumidityPressure
High77 °F (May 24, 4:50 PM)100% (May 14, 10:20 PM)30.07 "Hg (May 14, 10:20 PM)
Low36 °F (May 12, 4:20 AM)24% (May 13, 2:50 PM)29.50 "Hg (May 14, 10:50 AM)
Average54 °F72%29.82 "Hg
* Reported May 12 4:20 AM — May 27 4:20 AM, Turku, Weather by CustomWeather, © 2016

Note: Actual official high and low records may vary slightly from our data, if they occured in-between our weather recording intervals... More about our weather records

Advertising

Turku Weather History for the Previous 24 Hours

Scroll right to see more
 ConditionsComfort  
Time TempWeatherWind HumidityBarometerVisibility
4:20 AM
Fri, May 27
48 °FOvercast.2 mph94%30.01 "HgN/A
3:50 AM48 °FOvercast.2 mph94%30.01 "HgN/A
3:20 AM48 °FOvercast.1 mph94%30.01 "HgN/A
2:50 AM48 °FOvercast.No wind94%29.98 "HgN/A
2:20 AM48 °FMostly cloudy.1 mph94%29.98 "HgN/A
1:50 AM48 °FMostly cloudy.1 mph94%29.98 "HgN/A
1:20 AM48 °FOvercast.2 mph94%29.98 "HgN/A
12:50 AM48 °FMostly cloudy.2 mph87%29.98 "HgN/A
12:20 AM48 °FOvercast.2 mph94%29.98 "HgN/A
11:50 PM
Thu, May 26
48 °FLight rain. Mostly cloudy.3 mph94%29.95 "Hg6 mi
11:20 PM50 °FLight rain. Mostly cloudy.3 mph88%29.95 "HgN/A
10:50 PM50 °FDrizzle. Cloudy.No wind94%29.95 "Hg4 mi
10:20 PM50 °FDrizzle. Fog.2 mph94%29.95 "Hg2 mi
9:50 PM50 °FDrizzle. More clouds than sun.1 mph94%29.92 "Hg2 mi
9:20 PM50 °FRain. Fog.2 mph94%29.92 "Hg2 mi
8:50 PM50 °FLight rain. Mostly cloudy.2 mph94%29.92 "HgN/A
8:20 PM52 °FLight rain. More clouds than sun.No wind88%29.92 "Hg6 mi
7:50 PM50 °FHeavy rain. Overcast.3 mph94%29.89 "Hg4 mi
6:50 PM52 °FOvercast.5 mph82%29.89 "HgN/A
6:20 PM54 °FOvercast.3 mph77%29.89 "HgN/A
5:50 PM54 °FOvercast.6 mph77%29.86 "HgN/A
5:20 PM54 °FOvercast.6 mph77%29.86 "HgN/A
4:50 PM54 °FOvercast.6 mph77%29.86 "HgN/A
4:20 PM54 °FOvercast.9 mph77%29.86 "HgN/A
3:50 PM54 °FLow clouds.7 mph88%29.83 "HgN/A
3:20 PM54 °FOvercast.7 mph88%29.83 "HgN/A
2:50 PM55 °FMostly cloudy.7 mph88%29.83 "HgN/A
2:20 PM55 °FMostly cloudy.7 mph88%29.80 "HgN/A
12:20 PM55 °FMostly cloudy.6 mph88%29.77 "HgN/A
11:50 AM55 °FCloudy.7 mph94%29.77 "HgN/A
11:20 AM57 °FLow clouds.6 mph88%29.77 "HgN/A
10:50 AM57 °FLow clouds.6 mph94%29.74 "HgN/A
10:20 AM57 °FMostly cloudy.2 mph94%29.74 "Hg5 mi
9:50 AM57 °FLow clouds.1 mph88%29.74 "HgN/A
9:20 AM55 °FLow clouds.3 mph94%29.74 "HgN/A
8:50 AM57 °FLow clouds.No wind88%29.74 "HgN/A
8:20 AM55 °FLow clouds.1 mph94%29.74 "HgN/A
7:50 AM55 °FLow clouds.3 mph88%29.71 "HgN/A
7:20 AM55 °FLow clouds.2 mph88%29.71 "HgN/A
6:50 AM54 °FLow clouds.3 mph94%29.71 "HgN/A
6:20 AM54 °FOvercast.2 mph88%29.71 "HgN/A
5:50 AM54 °FPartly sunny.5 mph88%29.71 "HgN/A
5:20 AM54 °FMostly cloudy.2 mph88%29.71 "HgN/A
Weather by CustomWeather, © 2016

See weather overviewHow to use our weather pages